Regional Weather Roundup
Issued by NWS

Home | Current Version | Previous Version | Graphics & Text | Print | Product List | Glossary On
Versions: 1 2 3 4 5 6 7 8 9 10 11 12 13 14 15 16 17 18 19 20 21 22 23 24 25 26 27 28 29 30 31 32 33 34 35 36 37 38 39 40 41 42 43 44 45 46 47 48 49 50
627
ASUS43 KTOP 281208
RWRKS

WEATHER ROUNDUP FOR KANSAS
NATIONAL WEATHER SERVICE GOODLAND KS
700 AM CDT THU APR 28 2016

NOTE:  "FAIR" INDICATES FEW OR NO CLOUDS BELOW 12,000 FEET WITH NO
SIGNIFICANT WEATHER AND/OR OBSTRUCTIONS TO VISIBILITY.

KSZ001>006-013>018-027>032-041>047-281300-
NORTHWEST KANSAS

CITY           SKY/WX    TMP DP  RH WIND       PRES   REMARKS
GOODLAND       CLOUDY    36  32  85 NW9       29.95R
6HR MIN TEMP:  32; 6HR MAX TEMP:  37;

HAYS           CLOUDY    39  27  60 NW10      29.96R WCI  32
HILL CITY      PTCLDY    38  32  79 NW9       29.97R
6HR MIN TEMP:  37; 6HR MAX TEMP:  41;

RUSSELL        PTCLDY    40  33  76 NW13      29.94R WCI  32
6HR MIN TEMP:  39; 6HR MAX TEMP:  44;

$$

KSZ061>065-074>080-084>089-281300-
SOUTHWEST KANSAS

CITY           SKY/WX    TMP DP  RH WIND       PRES   REMARKS
DODGE CITY     CLOUDY    41  35  79 N12       29.96R
6HR MIN TEMP:  40; 6HR MAX TEMP:  47; 6HR PCP: TRACE;

ELKHART          N/A     41  35  79 NE9         N/A
GARDEN CITY    PTCLDY    38  34  85 N12       29.95R WCI  30
6HR MIN TEMP:  38; 6HR MAX TEMP:  46;

GREAT BEND     CLOUDY    41  28  60 NW13G18   29.95R
LIBERAL        MOCLDY    46  36  66 NE10      29.95R
PRATT          CLOUDY    41  35  77 NW10      29.95R
6HR MIN TEMP:  39; 6HR MAX TEMP:  46;

$$

KSZ066>073-081>083-090>101-281300-
SOUTHEAST KANSAS

CITY           SKY/WX    TMP DP  RH WIND       PRES   REMARKS
CHANUTE        PTCLDY    48  39  71 W10       29.90R
6HR MIN TEMP:  47; 6HR MAX TEMP:  53;

COFFEYVILLE    CLEAR     49  41  74 W6        29.92R
6HR MIN TEMP:  47; 6HR MAX TEMP:  56;

HUTCHINSON     PTCLDY    45  34  65 NW14G23   29.93R
6HR MIN TEMP:  43; 6HR MAX TEMP:  47;

MEDICINE LODGE   N/A     45  38  76 NW8       29.94R
NEWTON         CLOUDY    43  32  65 NW13      29.93R
PARSONS        PTCLDY    47  42  83 NW6       29.92R
6HR MIN TEMP:  45; 6HR MAX TEMP:  53;

WICHITA INTL   CLOUDY    47  38  71 NW7       29.94R
6HR MIN TEMP:  47; 6HR MAX TEMP:  52;

WICHITA JABRA  CLOUDY    46  36  68 NW14      29.92R
6HR MIN TEMP:  45; 6HR MAX TEMP:  49;

WICHITA MCCONL CLOUDY    47  38  72 NW10      29.93R
WINFIELD       PTCLDY    45  41  86 NW6       29.94R
6HR MIN TEMP:  44; 6HR MAX TEMP:  51;

$$

KSZ007>012-019>026-033>040-048>060-102>105-281300-
NORTHEAST KANSAS

CITY           SKY/WX    TMP DP  RH WIND       PRES   REMARKS
CONCORDIA      CLEAR     37  33  85 W10       29.88R WCI  30
6HR MIN TEMP:  37; 6HR MAX TEMP:  41;

EMPORIA        CLOUDY    43  36  76 W10       29.90R
6HR MIN TEMP:  43; 6HR MAX TEMP:  49;

LAWRENCE       CLOUDY    47  40  76 W12       29.86R
6HR MIN TEMP:  45; 6HR MAX TEMP:  50;

MANHATTAN      CLOUDY    43  35  73 W10       29.89R
6HR MIN TEMP:  42; 6HR MAX TEMP:  47;

MARYSVILLE     CLOUDY    45  41  87 NW17      29.83R
OLATHE IND     CLOUDY    45  39  79 W10       29.86R
6HR MIN TEMP:  44; 6HR MAX TEMP:  51;

OLATHE EXE     CLOUDY    44  39  82 W6        29.85R
6HR MIN TEMP:  43; 6HR MAX TEMP:  51;

SALINA         CLOUDY    43  35  73 W13       29.94R
6HR MIN TEMP:  42; 6HR MAX TEMP:  48;

TOPEKA BILLARD CLOUDY    47  39  74 W6        29.85R
6HR MIN TEMP:  45; 6HR MAX TEMP:  49;

TOPEKA FORBES  CLOUDY    46  38  73 W10       29.85R
6HR MIN TEMP:  44; 6HR MAX TEMP:  49;

$$




USA.gov is the U.S. government's official web portal to all federal, state and local government web resources and services.